Change the Weather History Date:

Wednesday, October 2, 2013

  Actual Average Record
Temperature  
Mean Temperature 45 °F -  
Max Temperature 48 °F - - ()
Min Temperature 42 °F - - ()
Degree Days  
Heating Degree Days 20    
Moisture  
Dew Point 44 °F    
Average Humidity 95    
Maximum Humidity 97    
Minimum Humidity 84    
Precipitation  
Precipitation 0.28 in - - ()
Sea Level Pressure  
Sea Level Pressure 30.10 in    
Wind  
Wind Speed 1 mph ()    
Max Wind Speed 4 mph    
Max Gust Speed -    
T = Trace of Precipitation, MM = Missing Value Source: Averaged Metar Reports

Daily Weather History Graph

Daily Weather History Graph

Search for Another Location

Airport or City:

Trip Planner

Search our weather history database for the weather conditions in past years. The results will help you decide how hot, cold, wet, or windy it might be!

Date:

Astronomy

Oct. 02, 2013 Rise Set
Actual Time 7:14 AM PDT 6:48 PM PDT
Civil Twilight 6:42 AM PDT 7:20 PM PDT
Nautical Twilight 6:05 AM PDT 7:57 PM PDT
Astronomical Twilight 5:27 AM PDT 8:35 PM PDT
Moon 4:42 AM PDT (10/2) 5:34 PM PDT (10/2)
Length of Visible Light 12h 37m
Length of Day
11h 33m
Waning Crescent, 6% of the Moon is Illuminated
Oct 2
Waning Crescent
Oct 4
New
Oct 11
First Quarter
Oct 18
Full
Oct 26
Last Quarter

Hourly Weather History & Observations

Time (PDT) Temp. Windchill Dew Point Humidity Pressure Visibility Wind Dir Wind Speed Gust Speed Precip Events Conditions
12:00 AM 45.9 °F - 45.0 °F 97% 30.08 in - Calm Calm - 0.01 in   Unknown
1:00 AM 45.7 °F - 44.8 °F 97% 30.09 in - Calm Calm - N/A   Unknown
2:00 AM 46 °F - 45 °F 93% 30.09 in - NNW 1.2 mph - -  
2:00 AM 45.5 °F - 44.6 °F 97% 30.09 in - NNW 1.2 mph - N/A   Unknown
3:00 AM 45.3 °F - 44.4 °F 97% 30.07 in - North 2.3 mph - N/A   Unknown
4:00 AM 45.1 °F - 44.2 °F 97% 30.06 in - NNE 1.2 mph - N/A   Unknown
5:00 AM 45 °F - 44 °F 97% 30.07 in - Calm Calm - -  
5:00 AM 45.3 °F - 44.4 °F 97% 30.07 in - Calm Calm - 0.10 in   Unknown
6:00 AM 45.1 °F - 44.2 °F 97% 30.07 in - NNE 2.3 mph - 0.11 in   Unknown
7:00 AM 44.6 °F - 43.7 °F 97% 30.07 in - Calm Calm - N/A   Unknown
8:00 AM 45 °F - 44 °F 94% 30.07 in - NNW 1.2 mph - -  
8:00 AM 44.8 °F - 43.9 °F 97% 30.07 in - NNW 1.2 mph - 0.04 in   Unknown
9:00 AM 45.1 °F - 44.2 °F 97% 30.08 in - NNW 2.3 mph - 0.05 in   Unknown
10:00 AM 45.3 °F - 44.2 °F 96% 30.08 in - NW 2.3 mph - 0.02 in   Unknown
11:00 AM 46 °F - 45 °F 94% 30.09 in - NNW 2.3 mph - -  
11:00 AM 46.0 °F - 44.8 °F 95% 30.09 in - NNW 2.3 mph - 0.04 in   Unknown
12:00 PM 46.0 °F - 44.6 °F 95% 30.09 in - NW 2.3 mph - 0.04 in   Unknown
1:00 PM 46.4 °F - 44.4 °F 93% 30.10 in - WNW 2.3 mph - 0.06 in   Unknown
2:00 PM 47 °F - 45 °F 91% 30.09 in - NW 3.5 mph - -  
2:00 PM 47.1 °F - 45.1 °F 93% 30.09 in - NW 3.5 mph - 0.05 in   Unknown
3:00 PM 47.1 °F - 45.0 °F 92% 30.09 in - NW 3.5 mph - N/A   Unknown
4:00 PM 47.8 °F - 45.9 °F 93% 30.09 in - NW 2.3 mph - 0.03 in   Unknown
5:00 PM 48 °F - 45 °F 84% 30.10 in - NW 1.2 mph - -  
5:00 PM 47.7 °F - 44.8 °F 90% 30.10 in - NW 1.2 mph - N/A   Unknown
6:00 PM 46.4 °F - 44.6 °F 93% 30.10 in - Calm Calm - N/A   Unknown
7:00 PM 44.2 °F - 43.2 °F 96% 30.12 in - NE 1.2 mph - N/A   Unknown
8:00 PM 43 °F - 42 °F 94% 30.14 in - NNE 2.3 mph - -  
8:00 PM 42.8 °F - 41.9 °F 97% 30.14 in - NNE 2.3 mph - N/A   Unknown
9:00 PM 43.0 °F - 42.3 °F 97% 30.16 in - NNW 1.2 mph - N/A   Unknown
10:00 PM 43.9 °F - 43.2 °F 97% 30.17 in - North 2.3 mph - N/A   Unknown
11:00 PM 44 °F - 43 °F 94% 30.19 in - North 3.5 mph - -  
11:00 PM 43.5 °F 41.9 °F 42.8 °F 97% 30.19 in - North 3.5 mph - N/A   Unknown